Other Public Products
Issued by NWS Grand Forks, ND

Home | Current Version | Previous Version | Graphics & Text | Print | Product List | Glossary On
Versions: 1 2 3 4 5 6 7 8 9 10 11 12 13 14 15 16 17 18 19 20 21 22 23 24 25 26 27 28 29 30 31 32 33 34 35 36 37 38 39 40 41 42 43 44 45 46 47 48 49 50
000
FPUS83 KFGF 290010
OPUFGF
PRAIRIE TO PINES WEATHER ROUNDUP
NATIONAL WEATHER SERVICE EASTERN NORTH DAKOTA/GRAND FORKS ND
700 PM CDT THU MAY 28 2015

 **SATELLITE DATA USED TO AUGMENT SKY COVER AT AUTOMATED STATIONS**
 *****  WEATHER ACROSS EASTERN NORTH DAKOTA  *****

CITY           SKY/WX    TMP DP  RH WIND       PRES   REMARKS
GRAND FORKS    LGT RAIN  65  62  90 W3        29.74F
6HR MIN TEMP:  65; 6HR MAX TEMP:  78; 6HR PCP:  0.39;

GRAND FORKS AF CLOUDY    69  62  77 W9        29.75F
GRAND CITY NWS   N/A     64 N/A N/A W2          N/A
BUXTON         NOT AVBL
DEVILS LAKE    MOSUNNY   73  57  56 NW16      29.80S
6HR MIN TEMP:  72; 6HR MAX TEMP:  75;

FARGO          LGT RAIN  65  61  87 S12       29.78F
6HR MIN TEMP:  64; 6HR MAX TEMP:  86; 6HR PCP:  0.51;

WAHPETON ARPT  MOCLDY    70  50  49 NW10G22   29.81R
$$

 *****  WEATHER ACROSS CENTRAL AND WESTERN NORTH DAKOTA  *****

CITY           SKY/WX    TMP DP  RH WIND       PRES   REMARKS
JAMESTOWN      PTSUNNY   75  58  55 NW6       29.78R
6HR MIN TEMP:  70; 6HR MAX TEMP:  78; 6HR PCP:  0.01;

BISMARCK       CLOUDY    74  54  49 N14       29.82S
6HR MIN TEMP:  74; 6HR MAX TEMP:  80;

MINOT          PTSUNNY   69  55  60 NW13      29.86S
6HR MIN TEMP:  67; 6HR MAX TEMP:  72;

MINOT AFB      PTSUNNY   73  62  68 N10       29.86S
6HR MIN TEMP:  67; 6HR MAX TEMP:  73;

GARRISON         N/A     73  56  54 N8        29.86R
6HR MIN TEMP:  70; 6HR MAX TEMP:  76;

WILLISTON      LGT RAIN  62  54  74 N21G36    29.95R
6HR MIN TEMP:  62; 6HR MAX TEMP:  75; 6HR PCP: TRACE;

DICKINSON      MOSUNNY   70  53  54 NE9       29.87S
6HR MIN TEMP:  70; 6HR MAX TEMP:  76;

HETTINGER      CLOUDY    65  54  67 S5        29.89S
6HR MIN TEMP:  64; 6HR MAX TEMP:  75; 6HR PCP: TRACE;

$$

 *****  OTHER OBSERVATIONS NORTHEAST NORTH DAKOTA  *****

CITY           SKY/WX    TMP DP  RH WIND       PRES   REMARKS
WALHALLA         N/A     64  64 100 MISG      29.82R
LANGDON        FAIR      72  59  64 N15G22    29.83R
CAVALIER       NOT AVBL
GRAFTON        RAIN      66  66 100 N9        29.79S
CANDO          MOCLDY    68  57  68 N15       29.83R
FORT TOTTEN      N/A     74  59  58 N6        29.95S
ROLLA          FAIR      66  57  72 N16       29.86S
RUGBY          NOT AVBL
 ***** THE ABOVE OBSERVATIONS ARE NON NWS ARE NOT QUALITY
        CONTROLLED AND MAY MIS-REPORT RAIN FOR SNOW...
$$

 *****  OTHER OBSERVATIONS SOUTHEAST NORTH DAKOTA *****

CITY           SKY/WX    TMP DP  RH WIND       PRES   REMARKS
COOPERSTOWN    NOT AVBL
VALLEY CITY    LGT RAIN  68  64  88 N6        29.80R
OAKES            N/A     68  64  88 NW12      29.75S
GWINNER        NOT AVBL
BUFFALO        NOT AVBL
WYNDMERE         N/A     64  63  94 N13         N/A
 ***** THE ABOVE OBSERVATIONS ARE NON NWS ARE NOT QUALITY
       CONTROLLED AND MAY MIS-REPORT RAIN FOR SNOW...
$$

  *****  WEATHER ACROSS NORTHERN MINNESOTA  *****

CITY           SKY/WX    TMP DP  RH WIND       PRES   REMARKS
FLAG ISLAND    LGT RAIN  57  55  94 CALM      29.81F
WARROAD        CLOUDY    63  59  88 S8        29.84R
ROSEAU         CLOUDY    64  59  82 S9G21     29.82R
HALLOCK        PTSUNNY   66  61  82 S7        29.78R
THF RVR FALLS  CLOUDY    66  63  88 NW5       29.80F
6HR MIN TEMP:  63; 6HR MAX TEMP:  77; 6HR PCP:  0.21;

HALSTAD        NOT AVBL
FOSSTON        CLOUDY    64  61  88 SW13      29.84R
BAUDETTE       LGT RAIN  61  59  93 SE6       29.83R
6HR MIN TEMP:  57; 6HR MAX TEMP:  67; 6HR PCP:  0.56;

WASKISH        CLOUDY    64  61  88 NW5       29.81S
CROOKSTON      CLOUDY    72  64  78 W9        29.79S
$$
  *****  WEATHER ACROSS CENTRAL AND WEST MINNESOTA  *****

CITY           SKY/WX    TMP DP  RH WIND       PRES   REMARKS
BEMIDJI        CLOUDY    75  52  44 S9        29.80F
PARK RAPIDS    CLOUDY    78  50  37 S13       29.82F
6HR MIN TEMP:  78; 6HR MAX TEMP:  86;

WADENA         PTSUNNY   79  52  38 S15       29.82F
DETROIT LAKES  CLOUDY    72  59  64 NW13G20   29.83R
MOORHEAD       CLOUDY    64  61  88 S8        29.80F
FERGUS FALLS   PTSUNNY   81  55  41 SW21G26   29.78F
ELBOW LAKE     FAIR      80  52  37 S20G29    29.79F
6HR MIN TEMP:  75; 6HR MAX TEMP:  83;

MORRIS MN      MOSUNNY   84  48  28 S22       29.78F
STAPLES        MOSUNNY   79  46  31 S13G25    29.84F
WHEATON        MOSUNNY   81  55  41 S14G24    29.79S
$$
  *****  WEATHER ELSEWHERE ACROSS MINNESOTA  *****

CITY           SKY/WX    TMP DP  RH WIND       PRES   REMARKS
DULUTH         MOSUNNY   48  43  82 SE13      29.94F
6HR MIN TEMP:  48; 6HR MAX TEMP:  54;

INTRNTL FALLS  CLOUDY    62  56  80 E3        29.82F
6HR MIN TEMP:  57; 6HR MAX TEMP:  65; 6HR PCP: TRACE;

ELY            NOT AVBL
CLOQUET        MOSUNNY   52  43  71 E9        29.94F
BRAINERD       MOSUNNY   79  51  37 S15G23    29.86F
6HR MIN TEMP:  78; 6HR MAX TEMP:  83;

HIBBING        MOSUNNY   73  51  46 S9        29.88F
6HR MIN TEMP:  69; 6HR MAX TEMP:  79;

ALEXANDRIA     MOSUNNY   80  48  32 S16       29.84F
6HR MIN TEMP:  73; 6HR MAX TEMP:  82;

SAINT CLOUD    MOSUNNY   80  51  36 S22G28    29.85F
6HR MIN TEMP:  79; 6HR MAX TEMP:  82;

MINNEAPOLIS    PTSUNNY   81  50  33 S17G24    29.90F
6HR MIN TEMP:  81; 6HR MAX TEMP:  84;

$$

  *****  WEATHER ACROSS SOUTH DAKOTA  *****

CITY           SKY/WX    TMP DP  RH WIND       PRES   REMARKS
SIOUX FALLS    PTSUNNY   74  54  49 S20G28    29.85F
6HR MIN TEMP:  74; 6HR MAX TEMP:  82;

BROOKINGS      PTSUNNY   77  57  50 S21G26    29.85S
WATERTOWN      PTSUNNY   78  59  51 S15G25    29.81F
6HR MIN TEMP:  75; 6HR MAX TEMP:  81;

HURON            N/A    N/A N/A N/A MISG      29.77F
SISSETON         N/A     82  59  45 S16G26    29.75F
ABERDEEN       PTSUNNY   82  58  43 S21G29    29.74F
6HR MIN TEMP:  80; 6HR MAX TEMP:  87;

MITCHELL       PTSUNNY   81  59  47 S20G26    29.80F
PIERRE         CLOUDY    69  62  78 W16       29.78F
6HR MIN TEMP:  64; 6HR MAX TEMP:  81; 6HR PCP:  0.32;

MOBRIDGE       CLOUDY    74  62  66 N7        29.79R
RAPID CITY     RAIN      57  54  89 N9        29.94F
6HR MIN TEMP:  57; 6HR MAX TEMP:  74; 6HR PCP:  0.06;

$$

  *****  SOME WEATHER IN NEARBY STATES *****

CITY           SKY/WX    TMP DP  RH WIND       PRES   REMARKS
GLASGOW MT     PTSUNNY   60  53  77 NE18G24   30.06R
6HR MIN TEMP:  57; 6HR MAX TEMP:  74; 6HR PCP:  0.29;

GREAT FALLS MT LGT RAIN  50  48  93 N14       30.22R
6HR MIN TEMP:  50; 6HR MAX TEMP:  57; 6HR PCP:  0.02;

CHEYENNE WY    PTSUNNY   64  38  38 NW28G40   30.03R
6HR MIN TEMP:  61; 6HR MAX TEMP:  69;

SCOTTSBLUFF NE PTSUNNY   71  54  54 NE10G21   29.91R
6HR MIN TEMP:  68; 6HR MAX TEMP:  76;

OMAHA NE       CLOUDY    72  63  73 SE17      29.92F
6HR MIN TEMP:  68; 6HR MAX TEMP:  73; 6HR PCP:  0.11;

DES MOINES IA  CLOUDY    74  63  68 SE13      29.98F
6HR MIN TEMP:  73; 6HR MAX TEMP:  78; 6HR PCP: TRACE;

DAVENPORT IA   PTSUNNY   80  50  34 S10       30.06S
6HR MIN TEMP:  79; 6HR MAX TEMP:  84;

CHICAGO IL     MOSUNNY   79  52  38 E10       30.10S
6HR MIN TEMP:  79; 6HR MAX TEMP:  82;

EAU CLAIRE WI  MOSUNNY   79  56  45 S15       29.97F
6HR MIN TEMP:  79; 6HR MAX TEMP:  85;

LA CROSSE WI   MOSUNNY   81  54  39 S14G23    30.01S
6HR MIN TEMP:  80; 6HR MAX TEMP:  85;

$$

  *****  SOME NATIONAL WEATHER *****

CITY           SKY/WX    TMP DP  RH WIND       PRES   REMARKS
LA GUARDIA NY  CLOUDY    78  63  59 NE12      30.14R
6HR MIN TEMP:  77; 6HR MAX TEMP:  84; 6HR PCP: TRACE;




USA.gov is the U.S. government's official web portal to all federal, state and local government web resources and services.